Find Starlink 4083

NORAD ID: 52832 Int'l Des: 2022-062 Owner: SPXS Country: US Constellation: starlink operational
LEOCIRCULAR

Live Position

Loading 3D Globe...

About Starlink 4083

Description loading...

Upcoming Passes

Passes for default location (London). Set your location on the main map for personalized predictions.

Altitude History

Loading altitude history...

Two-Line Element Set

1 52832U 22062C 26124.08264631 .00000113 00000-0 25174-4 0 9995
2 52832 53.2165 145.4503 0001112 76.3669 283.7447 15.08834044214142
Epoch: May 4, 2026 • Age: 12 hours

Current Status

Altitude 540.0 km
Velocity 7.59 km/s
Sub-Earth Point 7.60°N, 112.89°W
Launch Date Jun 17, 2022
Age 3.8 years
Type internet

Technical Details

Classification Payload
Mass 297.00 kg
Dry Mass 275.00 kg
Total Mass 297.00 kg
Length 0.20 m
Diameter 2.80 m
Span 9.00 m
Shape Box + pan
Manufacturer SPXS
Bus Type Starlink
Phase Status In Orbit
Owner/State SPXS/US

Most Searched